Weather History for Hamilton, OH

Change the Weather History Date:

Friday, March 14, 2014

  Actual Average (KCVG) Record (KCVG)
Temperature  
Mean Temperature 50 °F 43 °F  
Max Temperature 66 °F 52 °F 80 °F (1990)
Min Temperature 35 °F 33 °F 11 °F (1993)
Degree Days  
Heating Degree Days 16 22  
Month to date heating degree days 343  
Since 1 July heating degree days 4170  
Cooling Degree Days 0 0  
Month to date cooling degree days 0  
Year to date cooling degree days 0  
Moisture  
Dew Point 27 °F    
Average Humidity 41    
Maximum Humidity 71    
Minimum Humidity 25    
Precipitation  
Precipitation 0.06 in 0.12 in 2.35 in (1922)
Month to date precipitation 1.60  
Year to date precipitation 7.41  
Snow  
Snow 0.00 in 0.10 in 4.20 in (1999)
Month to date snowfall 1.7  
Since 1 July snowfall 20.3  
Snow Depth -    
Sea Level Pressure  
Sea Level Pressure 29.93 in    
Wind  
Wind Speed 9 mph (SSW)    
Max Wind Speed 22 mph    
Max Gust Speed 43 mph    
Visibility 10 miles    
Events Rain    
T = Trace of Precipitation, MM = Missing Value Source: NWS Daily Summary

Daily Weather History Graph

Daily Weather History Graph

Search for Another Location

Airport:

Trip Planner

Search our weather history database for the weather conditions in past years. The results will help you decide how hot, cold, wet, or windy it might be!

Date:

Astronomy

Mar. 14, 2014 Rise Set
Actual Time 7:51 AM EDT 7:44 PM EDT
Civil Twilight 7:24 AM EDT 8:10 PM EDT
Nautical Twilight 6:53 AM EDT 8:41 PM EDT
Astronomical Twilight 6:21 AM EDT 9:13 PM EDT
Moon 6:05 PM EDT (3/14) 6:30 AM EDT (3/14)
Length of Visible Light 12h 46m
Length of Day
11h 53m
Waxing Gibbous, 96% of the Moon is Illuminated
Mar 14
Waxing Gibbous
Mar 16
Full
Mar 23
Last Quarter
Mar 30
New
Apr 7
First Quarter

Hourly Weather History & Observations

Time (EDT) Temp. Windchill Dew Point Humidity Pressure Visibility Wind Dir Wind Speed Gust Speed Precip Events Conditions
12:53 AM 37.9 °F 33.5 °F 18.0 °F 45% 30.11 in 10.0 mi SSW 5.8 mph - N/A   Clear
1:53 AM 37.9 °F 34.4 °F 18.0 °F 45% 30.09 in 10.0 mi SSW 4.6 mph - N/A   Clear
2:53 AM 37.9 °F 35.5 °F 19.0 °F 47% 30.08 in 10.0 mi South 3.5 mph - N/A   Clear
3:53 AM 36.0 °F 33.3 °F 19.0 °F 50% 30.06 in 10.0 mi South 3.5 mph - N/A   Clear
4:53 AM 37.0 °F 33.3 °F 19.9 °F 50% 30.04 in 10.0 mi South 4.6 mph - N/A   Clear
5:53 AM 35.1 °F 32.2 °F 21.9 °F 59% 30.02 in 10.0 mi SE 3.5 mph - N/A   Clear
6:53 AM 39.9 °F 36.7 °F 23.0 °F 51% 30.01 in 10.0 mi SSW 4.6 mph - N/A   Clear
7:53 AM 41.0 °F 35.8 °F 23.0 °F 49% 30.01 in 10.0 mi SSW 8.1 mph - N/A   Clear
8:53 AM 44.1 °F 38.6 °F 25.0 °F 47% 30.01 in 10.0 mi SW 10.4 mph 17.3 mph N/A   Clear
9:53 AM 48.9 °F - 27.0 °F 43% 30.01 in 10.0 mi SSW 10.4 mph 17.3 mph N/A   Clear
10:53 AM 53.1 °F - 28.9 °F 40% 29.98 in 10.0 mi SSW 13.8 mph 27.6 mph N/A   Clear
11:53 AM 57.9 °F - 30.0 °F 35% 29.95 in 10.0 mi SSW 12.7 mph 24.2 mph N/A   Clear
12:53 PM 62.1 °F - 30.9 °F 31% 29.90 in 10.0 mi SW 13.8 mph 25.3 mph N/A   Clear
1:53 PM 64.0 °F - 30.9 °F 29% 29.88 in 10.0 mi SSW 17.3 mph 36.8 mph N/A   Clear
2:53 PM 64.9 °F - 30.9 °F 28% 29.83 in 10.0 mi SW 17.3 mph 34.5 mph N/A   Clear
3:53 PM 64.9 °F - 28.0 °F 25% 29.81 in 10.0 mi SW 21.9 mph 42.6 mph N/A   Clear
4:53 PM 63.0 °F - 28.0 °F 27% 29.78 in 10.0 mi SW 17.3 mph 35.7 mph N/A   Clear
5:53 PM 63.0 °F - 28.9 °F 28% 29.79 in 10.0 mi SW 16.1 mph 39.1 mph N/A   Clear
6:53 PM 62.1 °F - 30.0 °F 30% 29.77 in 10.0 mi SSW 12.7 mph 34.5 mph N/A   Mostly Cloudy
7:53 PM 61.0 °F - 30.0 °F 31% 29.81 in 10.0 mi SW 10.4 mph 21.9 mph N/A   Overcast
8:53 PM 60.1 °F - 33.1 °F 36% 29.83 in 10.0 mi WSW 17.3 mph 27.6 mph N/A   Overcast
9:53 PM 59.0 °F - 33.1 °F 38% 29.84 in 10.0 mi SW 6.9 mph 20.7 mph N/A   Mostly Cloudy
10:53 PM 59.0 °F - 35.1 °F 41% 29.85 in 10.0 mi WSW 11.5 mph 23.0 mph N/A   Overcast
11:53 PM 52.0 °F - 43.0 °F 71% 29.90 in 3.0 mi West 12.7 mph 34.5 mph 0.06 in Rain Heavy Rain